TimeCST,TemperatureF,Dew PointF,Humidity,Sea Level PressureIn,VisibilityMPH,Wind Direction,Wind SpeedMPH,Gust SpeedMPH,PrecipitationIn,Events,Conditions,WindDirDegrees,DateUTC
12:53 AM,55.0,53.1,93,29.62,10.0,South,11.5,-,N/A,,Partly Cloudy,170,2013-01-29 06:53:00
1:53 AM,55.9,53.1,90,29.60,10.0,South,12.7,-,N/A,,Partly Cloudy,170,2013-01-29 07:53:00
2:53 AM,57.0,54.0,89,29.58,10.0,South,13.8,-,N/A,,Mostly Cloudy,170,2013-01-29 08:53:00
3:40 AM,57.2,55.4,94,29.56,10.0,South,16.1,-,N/A,Thunderstorm,Thunderstorm,170,2013-01-29 09:40:00
3:53 AM,57.9,55.0,90,29.61,2.5,West,18.4,27.6,0.20,Rain-Thunderstorm,Light Thunderstorms and Rain,260,2013-01-29 09:53:00
4:09 AM,57.2,55.4,94,29.56,5.0,South,19.6,26.5,0.08,Rain-Thunderstorm,Heavy Thunderstorms and Rain,180,2013-01-29 10:09:00
4:16 AM,59.0,53.6,82,29.56,4.0,South,23.0,33.4,0.10,Rain,Rain,190,2013-01-29 10:16:00
4:27 AM,60.8,51.8,72,29.55,10.0,SSW,15.0,24.2,0.11,Rain-Thunderstorm,Light Thunderstorms and Rain,200,2013-01-29 10:27:00
4:42 AM,59.0,55.4,88,29.56,10.0,South,13.8,-,0.11,,Mostly Cloudy,190,2013-01-29 10:42:00
4:53 AM,59.0,55.0,87,29.56,10.0,South,16.1,-,0.11,,Partly Cloudy,180,2013-01-29 10:53:00
5:53 AM,57.9,55.0,90,29.56,10.0,South,12.7,-,N/A,,Partly Cloudy,180,2013-01-29 11:53:00
6:17 AM,57.2,55.4,94,29.56,10.0,South,9.2,-,N/A,Thunderstorm,Thunderstorm,180,2013-01-29 12:17:00
6:29 AM,57.2,51.8,82,29.54,1.8,SSW,26.5,44.9,0.14,Rain-Thunderstorm,Heavy Thunderstorms and Rain,210,2013-01-29 12:29:00
6:35 AM,57.2,51.8,82,29.57,3.0,SW,17.3,44.9,0.14,Rain-Thunderstorm,Light Thunderstorms and Rain,220,2013-01-29 12:35:00
6:53 AM,57.0,53.1,87,29.56,10.0,SSW,6.9,-,0.14,Thunderstorm,Mostly Cloudy,200,2013-01-29 12:53:00
7:01 AM,57.2,53.6,88,29.56,10.0,SSW,6.9,-,N/A,,Scattered Clouds,200,2013-01-29 13:01:00
7:37 AM,57.2,53.6,88,29.56,10.0,SW,9.2,-,N/A,,Mostly Cloudy,230,2013-01-29 13:37:00
7:53 AM,55.0,52.0,89,29.57,10.0,WNW,9.2,-,N/A,,Overcast,300,2013-01-29 13:53:00
8:50 AM,48.2,44.6,87,29.57,4.0,NW,11.5,-,N/A,,Overcast,320,2013-01-29 14:50:00
8:53 AM,46.9,45.0,93,29.59,4.0,NW,10.4,-,N/A,,Overcast,310,2013-01-29 14:53:00
9:00 AM,46.4,44.6,93,29.60,4.0,NW,13.8,-,N/A,,Overcast,310,2013-01-29 15:00:00
9:07 AM,46.4,42.8,87,29.60,5.0,NW,13.8,-,N/A,,Overcast,310,2013-01-29 15:07:00
9:16 AM,44.6,42.8,93,29.60,5.0,NW,12.7,-,N/A,,Overcast,320,2013-01-29 15:16:00
9:34 AM,44.6,41.0,87,29.60,5.0,NW,11.5,-,N/A,,Overcast,320,2013-01-29 15:34:00
9:53 AM,43.0,41.0,93,29.61,5.0,NW,8.1,-,N/A,,Overcast,310,2013-01-29 15:53:00
10:32 AM,42.8,39.2,87,29.60,5.0,WNW,5.8,-,0.00,Rain-Thunderstorm,Light Rain,300,2013-01-29 16:32:00
10:41 AM,42.8,39.2,87,29.63,1.8,West,8.1,-,0.05,Rain-Thunderstorm,Heavy Rain,280,2013-01-29 16:41:00
10:53 AM,41.0,39.0,93,29.62,1.5,WNW,10.4,-,0.10,Rain-Thunderstorm,Rain,300,2013-01-29 16:53:00
11:03 AM,41.0,39.2,93,29.61,1.8,NW,11.5,-,0.02,Rain-Thunderstorm,Rain,320,2013-01-29 17:03:00
11:10 AM,41.0,39.2,93,29.61,2.0,NW,10.4,-,0.04,Rain-Thunderstorm,Rain,310,2013-01-29 17:10:00
11:19 AM,39.2,39.2,100,29.62,1.8,WNW,9.2,-,0.07,Rain,Rain,300,2013-01-29 17:19:00
11:35 AM,41.0,39.2,93,29.63,2.0,SW,5.8,-,0.12,Rain,Rain,230,2013-01-29 17:35:00
11:53 AM,39.9,39.0,97,29.64,3.0,WNW,9.2,-,0.14,Rain,Light Rain,300,2013-01-29 17:53:00
12:11 PM,39.2,37.4,93,29.61,3.0,NW,12.7,-,0.03,Rain,Rain,310,2013-01-29 18:11:00
12:35 PM,39.2,37.4,93,29.58,2.5,NNW,10.4,-,0.07,Rain,Rain,330,2013-01-29 18:35:00
12:43 PM,39.2,37.4,93,29.57,3.0,NNW,11.5,-,0.08,Rain,Rain,330,2013-01-29 18:43:00
12:53 PM,39.0,37.0,93,29.58,4.0,NNW,9.2,-,0.09,Rain,Light Rain,330,2013-01-29 18:53:00
1:53 PM,39.0,36.0,89,29.57,7.0,NNW,10.4,-,0.01,Rain,Light Rain,330,2013-01-29 19:53:00
2:53 PM,37.0,36.0,96,29.55,4.0,NNW,10.4,-,0.01,Rain,Light Rain,340,2013-01-29 20:53:00
3:53 PM,36.0,34.0,93,29.52,6.0,NNW,17.3,-,0.01,Rain,Light Rain,340,2013-01-29 21:53:00
4:53 PM,35.1,33.1,92,29.57,7.0,NNW,12.7,-,0.00,Rain,Light Rain,340,2013-01-29 22:53:00
5:53 PM,35.1,33.1,92,29.54,8.0,NNW,11.5,-,0.00,,Overcast,340,2013-01-29 23:53:00
6:53 PM,35.1,33.1,92,29.57,6.0,North,9.2,-,0.01,Rain,Light Rain,350,2013-01-30 00:53:00
7:53 PM,34.0,32.0,92,29.53,6.0,NNW,16.1,-,0.01,Rain,Light Rain,340,2013-01-30 01:53:00
8:05 PM,33.8,32.0,93,29.55,5.0,NNW,13.8,-,0.00,Rain,Light Rain,330,2013-01-30 02:05:00
8:36 PM,33.8,32.0,93,29.55,6.0,North,9.2,-,0.00,Rain,Light Rain,350,2013-01-30 02:36:00
8:53 PM,34.0,32.0,92,29.56,5.0,NNW,11.5,-,0.00,Rain,Light Rain,340,2013-01-30 02:53:00
9:53 PM,34.0,32.0,92,29.59,3.0,NW,13.8,-,0.06,Rain,Rain,320,2013-01-30 03:53:00
10:53 PM,33.1,32.0,96,29.52,4.0,North,12.7,-,0.04,Rain,Light Rain,360,2013-01-30 04:53:00
11:53 PM,33.1,30.9,92,29.53,6.0,North,13.8,-,0.00,,Overcast,360,2013-01-30 05:53:00